Regional Weather Roundup
Issued by NWS

Home | Current Version | Previous Version | Graphics & Text | Print | Product List | Glossary On
Versions: 1 2 3 4 5 6 7 8 9 10 11 12 13 14 15 16 17 18 19 20 21 22 23 24 25 26 27
000
ASUS45 KBOU 210406
RWRCO

WEATHER ROUNDUP FOR COLORADO
NATIONAL WEATHER SERVICE DENVER/BOULDER CO
1000 PM MDT SUN APR 20 2014

NOTE: "FAIR" INDICATES FEW OR NO CLOUDS BELOW 12000 FEET WITH NO
SIGNIFICANT WEATHER AND/OR OBSTRUCTIONS TO VISIBILITY.

COZ001>005-013-030-031-210500-
...NORTHWEST COLORADO...

CITY           SKY/WX    TMP DP  RH WIND       PRES   REMARKS
CRAIG          PTCLDY    48  39  71 NE13      30.22S
HAYDEN         PTCLDY    43  36  75 SE8       30.26S
MEEKER         PTCLDY    47  35  63 CALM      30.23R
MOUNT WERNER   PTCLDY    39  23  52 W7        30.40R
STEAMBOAT SPGS PTCLDY    42  35  76 CALM      30.26R
WALDEN         PTCLDY    36  32  87 E7        30.28R
$$

COZ006>008-011-210500-
...WEST CENTRAL VALLEYS...

CITY           SKY/WX    TMP DP  RH WIND       PRES   REMARKS
GRAND JUNCTION PTCLDY    59  37  44 CALM      30.16R
MONTROSE       MOCLDY    57  36  45 N6        30.22R
EAGLE          PTCLDY    48  37  66 W3        30.27R
RIFLE          PTCLDY    50  39  66 W7        30.22R
DELTA          CLOUDY    60  41  49 CALM      30.18R
NUCLA            N/A     55  36  47 CALM      30.23S
$$

COZ017>023-064>068-210500-
...SOUTHWEST COLORADO...

CITY           SKY/WX    TMP DP  RH WIND       PRES   REMARKS
DURANGO        PTCLDY    56  26  31 N9        30.18R
CORTEZ         CLEAR     53  32  44 E8        30.17R
PAGOSA SPRINGS PTCLDY    45  22  40 CALM      30.22R
TELLURIDE      PTCLDY    43  34  70 SE5       30.34R
WOLF CREEK PAS CLEAR     32  21  64 NE10      30.42R WCI  24
$$

COZ009-010-012-014-032>034-037-058>063-210500-
...CENTRAL COLORADO...

CITY           SKY/WX    TMP DP  RH WIND       PRES   REMARKS
ASPEN          LGT RAIN  42  39  89 SE13      30.31F
BUENA VISTA    CLOUDY    49  31  48 NW12      30.26R
COPPER MTN     PTCLDY    34  27  75 W20       30.43S WCI  22
BERTHOUD PASS  FAIR      25  16  68 MISG      30.44S
COTTONWOOD PAS CLOUDY    45  27  49 NW6       30.33S
GUNNISON       PTCLDY    50  30  46 CALM      30.31R
KREMMLING      CLEAR     39  32  75 CALM      30.30R
LEADVILLE      PTCLDY    35  28  75 CALM      30.35R
MONARCH PASS   PTCLDY    32  25  74 SW8       30.53R WCI  25
SALIDA         PTCLDY    46  37  69 SW7       30.32R
SUNLIGHT       MOCLDY    37  32  81 CALM      30.42R
WILKERSON PASS MOCLDY    34  30  86 NE12      30.42R WCI  25
$$

COZ069>075-210500-
...SAN LUIS VALLEY/SANGRE DE CRISTO MOUNTAINS...

CITY           SKY/WX    TMP DP  RH WIND       PRES   REMARKS
ALAMOSA        CLOUDY    50  36  58 S5        30.21R
LA VETA PASS   MOCLDY    39  30  70 N6        30.33S
SAGUACHE       PTCLDY    50  30  46 NW15      30.25R
$$

COZ035-036-038>040-210500-
...NORTHERN COLORADO FRONT RANGE...

CITY           SKY/WX    TMP DP  RH WIND       PRES   REMARKS
DENVER INTL AP MOCLDY    61  35  37 W12       30.10S
DMNS CITY PARK   N/A     59  35  41 SW5G10    30.12F
AURORA         MOCLDY    57  37  47 SW2       30.13S
FRONT RANGE AP NOT AVBL
ERIE MUNI ARPT MOCLDY    55  39  56 SW5       30.11S
BOULDER MUN AP MOCLDY    57  34  41 SW7       30.12R
CENTENNIAL     MOCLDY    56  35  45 W9        30.15S
BROOMFIELD     MOCLDY    52  41  66 W12       30.14S
FORT COLLINS   PTCLDY    55  36  47 S5        30.12R
LONGMONT       PTCLDY    55  39  56 CALM      30.13R
$$

COZ041-046-047-076>085-087-088-210500-
...PIKES PEAK/PALMER DIVIDE AND SOUTHERN FOOTHILLS...

CITY           SKY/WX    TMP DP  RH WIND       PRES   REMARKS
COLO. SPRINGS  MOCLDY    56  34  43 NW16G22   30.17R
A. F. ACADEMY  PTCLDY    51  37  58 N16       30.20R
ELLICOTT       NOT AVBL
FALCON         PTCLDY    51  34  52 NW15G26   30.20R
FORT CARSON    PTCLDY    53  36  51 NW8       30.13S
LIMON          CLEAR     44  35  70 VRB3      30.10R
MONUMENT HILL  MOCLDY    46  37  71 W12       30.21S
TRINIDAD       CLEAR     50  42  74 W9        30.13R
$$

COZ042>045-048>051-090-091-210500-
...NORTHEAST COLORADO...

CITY           SKY/WX    TMP DP  RH WIND       PRES   REMARKS
GREELEY ARPT   PTCLDY    54  36  50 W8        30.08S
AKRON          CLEAR     52  37  56 NW8       30.03R
BURLINGTON     CLEAR     50  42  74 W8        30.03R
WRAY           PTCLDY    55  46  71 W6        30.01R
STERLING       CLEAR     57  36  44 N8        30.02R
HOLYOKE        CLEAR     55  43  62 CALM      30.01R
FORT MORGAN    CLEAR     57  37  46 W12       30.06R
$$

COZ086-089-092>099-210500-
...SOUTHEAST COLORADO...

CITY           SKY/WX    TMP DP  RH WIND       PRES   REMARKS
PUEBLO         PTCLDY    56  42  59 NW7       30.07R
LA JUNTA       CLEAR     57  48  72 W10       30.04R
LAMAR          PTCLDY    57  46  66 NW3       29.98R
SPRINGFIELD      N/A     54  46  74 NW9       30.02R
$$



USA.gov is the U.S. government's official web portal to all federal, state and local government web resources and services.